Location: Anglesey
(53.1800°N, 4.2200°W)
Time: 03:40:14
(UTC+00:00)

Tiangong 2 - Pass Details

Date: 13 October 2017
Orbit: 386 x 390 km, 42.8° (Epoch: 12 December)

Event Time Altitude Azimuth Distance (km) Brightness Sun altitude
Exits shadow 06:19:46 - 210° (SSW) 1,477 3.7 -12.8°
Reaches altitude 10° 06:20:01 10° 206° (SSW) 1,421 3.6 -12.7°
Maximum altitude 06:21:37 13° 176° (S) 1,249 3.7 -12.5°
Drops below altitude 10° 06:23:13 10° 146° (SE) 1,423 4.4 -12.3°
Sets 06:26:07 0° 117° (ESE) 2,281 6.1 -11.8°
